When you browse on this site, cookies collect data to enhance your experience and personalize the content and advertising you see.
Visit our Privacy Policy to learn more. By continuing to use the site, you agree to this use of cookies and data.
  • en France
  • Liste des pays
  • À 7 jours
  • Température de l'eau
  • Carte satellitaire
  • Carte météo
  • Widgets météo
  • user-avatar
    Se connecter

    Météo par heure à Shkodёr

    Ce jour, 24 Janvier, Jeudi

    Heure Température Précipitation Vent Pression Humidité
    00:00 +6°C° 0.9 mm 1 m/s 722 mmHg 90%
    01:00 +6°C° 0 mm 0 m/s 722 mmHg 92%
    02:00 +6°C° 0.4 mm 1 m/s 722 mmHg 94%
    03:00 +6°C° 0.4 mm 1 m/s 723 mmHg 95%
    04:00 +5°C° 0.4 mm 2 m/s 723 mmHg 96%
    05:00 +6°C° 0.1 mm 1 m/s 723 mmHg 96%
    06:00 +6°C° 0.1 mm 1 m/s 723 mmHg 96%
    07:00 +6°C° 0.1 mm 1 m/s 724 mmHg 95%
    08:00 +7°C° 0 mm 1 m/s 724 mmHg 91%
    09:00 +7°C° 0 mm 1 m/s 724 mmHg 87%
    10:00 +8°C° 0 mm 1 m/s 725 mmHg 83%
    11:00 +9°C° 0 mm 1 m/s 725 mmHg 79%
    12:00 +9°C° 0 mm 1 m/s 725 mmHg 76%
    13:00 +9°C° 0 mm 2 m/s 725 mmHg 72%
    14:00 +8°C° 0 mm 2 m/s 725 mmHg 74%
    15:00 +8°C° 0 mm 2 m/s 725 mmHg 76%
    16:00 +8°C° 0 mm 2 m/s 725 mmHg 77%
    17:00 +7°C° 0 mm 3 m/s 726 mmHg 78%
    18:00 +5°C° 0 mm 3 m/s 726 mmHg 78%
    19:00 +4°C° 0 mm 4 m/s 726 mmHg 78%
    20:00 +3°C° 0 mm 4 m/s 726 mmHg 77%
    21:00 +2°C° 0 mm 5 m/s 726 mmHg 76%
    22:00 +2°C° 0 mm 5 m/s 726 mmHg 74%
    23:00 +2°C° 0 mm 6 m/s 726 mmHg 73%

    Demain, 25 Janvier, Vendredi

    Heure Température Précipitation Vent Pression Humidité
    00:00 +2°C° 0 mm 6 m/s 726 mmHg 71%
    01:00 +2°C° 0 mm 7 m/s 725 mmHg 69%
    02:00 +2°C° 0.6 mm 7 m/s 725 mmHg 71%
    03:00 +1°C° 0.6 mm 8 m/s 725 mmHg 73%
    04:00 +1°C° 0.6 mm 8 m/s 724 mmHg 75%
    05:00 +2°C° 0.5 mm 7 m/s 725 mmHg 74%
    06:00 +2°C° 0.5 mm 7 m/s 725 mmHg 74%
    07:00 +2°C° 0.5 mm 6 m/s 725 mmHg 73%
    08:00 +2°C° 0.4 mm 6 m/s 725 mmHg 75%
    09:00 +2°C° 0.4 mm 5 m/s 726 mmHg 77%
    10:00 +2°C° 0.4 mm 5 m/s 726 mmHg 79%
    11:00 +3°C° 0 mm 5 m/s 726 mmHg 76%
    12:00 +5°C° 0 mm 5 m/s 725 mmHg 74%
    13:00 +6°C° 0 mm 4 m/s 725 mmHg 72%
    14:00 +5°C° 0.5 mm 4 m/s 725 mmHg 74%
    15:00 +4°C° 0.5 mm 4 m/s 725 mmHg 77%
    16:00 +3°C° 0.5 mm 4 m/s 725 mmHg 79%
    17:00 +3°C° 0.6 mm 4 m/s 725 mmHg 79%
    18:00 +3°C° 0.6 mm 4 m/s 725 mmHg 78%
    19:00 +3°C° 0.6 mm 4 m/s 725 mmHg 77%
    20:00 +3°C° 0.1 mm 4 m/s 725 mmHg 77%
    21:00 +3°C° 0.1 mm 3 m/s 726 mmHg 77%
    22:00 +3°C° 0.1 mm 3 m/s 726 mmHg 77%
    23:00 +3°C° 0.1 mm 3 m/s 726 mmHg 77%

    Après-demain, 26 Janvier, Samedi

    Heure Température Précipitation Vent Pression Humidité
    00:00 +3°C° 0.1 mm 3 m/s 727 mmHg 76%
    01:00 +3°C° 0.1 mm 3 m/s 727 mmHg 76%
    02:00 +3°C° 0 mm 3 m/s 727 mmHg 75%
    03:00 +2°C° 0 mm 3 m/s 727 mmHg 74%
    04:00 +1°C° 0 mm 4 m/s 728 mmHg 74%
    05:00 +1°C° 0 mm 4 m/s 728 mmHg 73%
    06:00 +1°C° 0 mm 4 m/s 729 mmHg 73%
    07:00 +1°C° 0 mm 4 m/s 730 mmHg 73%
    08:00 +3°C° 0 mm 4 m/s 730 mmHg 72%
    09:00 +3°C° 0 mm 5 m/s 731 mmHg 71%
    10:00 +5°C° 0 mm 5 m/s 731 mmHg 70%
    11:00 +5°C° 0 mm 5 m/s 732 mmHg 69%
    12:00 +6°C° 0 mm 5 m/s 732 mmHg 69%
    13:00 +6°C° 0 mm 5 m/s 732 mmHg 68%
    14:00 +6°C° 0 mm 5 m/s 733 mmHg 69%
    15:00 +5°C° 0 mm 4 m/s 733 mmHg 69%
    16:00 +5°C° 0 mm 4 m/s 733 mmHg 70%
    17:00 +4°C° 0 mm 4 m/s 734 mmHg 72%
    18:00 +3°C° 0 mm 4 m/s 734 mmHg 73%
    19:00 +2°C° 0 mm 3 m/s 735 mmHg 75%
    20:00 +2°C° 0 mm 3 m/s 735 mmHg 75%
    21:00 +2°C° 0 mm 3 m/s 735 mmHg 75%
    22:00 +2°C° 0 mm 3 m/s 735 mmHg 75%
    23:00 +2°C° 0 mm 3 m/s 735 mmHg 75%

    27 Janvier, Dimanche

    Heure Température Précipitation Vent Pression Humidité
    00:00 +2°C° 0 mm 3 m/s 735 mmHg 75%
    01:00 +2°C° 0 mm 3 m/s 735 mmHg 75%
    02:00 +3°C° 0 mm 2 m/s 735 mmHg 73%
    03:00 +3°C° 0 mm 2 m/s 735 mmHg 72%
    04:00 +3°C° 0 mm 2 m/s 735 mmHg 71%
    05:00 +3°C° 0 mm 2 m/s 735 mmHg 70%
    06:00 +3°C° 0 mm 2 m/s 735 mmHg 69%
    07:00 +3°C° 0 mm 2 m/s 735 mmHg 68%
    08:00 +5°C° 0 mm 2 m/s 735 mmHg 67%
    09:00 +7°C° 0 mm 1 m/s 735 mmHg 66%
    10:00 +9°C° 0 mm 1 m/s 735 mmHg 64%
    11:00 +9°C° 0 mm 1 m/s 735 mmHg 62%
    12:00 +10°C° 0 mm 1 m/s 734 mmHg 60%
    13:00 +10°C° 0 mm 0 m/s 734 mmHg 58%
    14:00 +9°C° 0 mm 0 m/s 734 mmHg 61%
    15:00 +9°C° 0 mm 0 m/s 734 mmHg 64%
    16:00 +9°C° 0 mm 1 m/s 733 mmHg 67%
    17:00 +8°C° 0 mm 1 m/s 733 mmHg 68%
    18:00 +7°C° 0 mm 1 m/s 734 mmHg 69%
    19:00 +6°C° 0 mm 1 m/s 734 mmHg 70%
    20:00 +6°C° 0 mm 1 m/s 734 mmHg 72%
    21:00 +6°C° 0 mm 1 m/s 734 mmHg 73%
    22:00 +4°C° 0 mm 2 m/s 734 mmHg 74%
    23:00 +4°C° 0 mm 2 m/s 734 mmHg 76%

    28 Janvier, Lundi

    Heure Température Précipitation Vent Pression Humidité
    00:00 +4°C° 0 mm 2 m/s 734 mmHg 77%
    01:00 +4°C° 0 mm 2 m/s 733 mmHg 78%
    02:00 +5°C° 0.1 mm 2 m/s 733 mmHg 79%
    03:00 +5°C° 0.1 mm 2 m/s 733 mmHg 81%
    04:00 +5°C° 0.1 mm 2 m/s 732 mmHg 82%
    05:00 +6°C° 0.3 mm 2 m/s 732 mmHg 83%
    06:00 +6°C° 0.3 mm 2 m/s 732 mmHg 83%
    07:00 +6°C° 0.3 mm 2 m/s 731 mmHg 84%
    08:00 +7°C° 0.5 mm 3 m/s 731 mmHg 84%
    09:00 +7°C° 0.5 mm 3 m/s 731 mmHg 84%
    10:00 +7°C° 0.5 mm 3 m/s 731 mmHg 85%
    11:00 +7°C° 1.7 mm 4 m/s 730 mmHg 86%
    12:00 +7°C° 1.7 mm 5 m/s 730 mmHg 87%
    13:00 +7°C° 1.7 mm 5 m/s 729 mmHg 88%
    14:00 +7°C° 1.4 mm 6 m/s 729 mmHg 89%
    15:00 +8°C° 1.4 mm 6 m/s 729 mmHg 89%
    16:00 +8°C° 1.4 mm 6 m/s 729 mmHg 90%
    17:00 +8°C° 2.9 mm 6 m/s 729 mmHg 90%
    18:00 +8°C° 2.9 mm 6 m/s 729 mmHg 91%
    19:00 +8°C° 2.9 mm 5 m/s 730 mmHg 91%
    20:00 +8°C° 2.2 mm 5 m/s 730 mmHg 92%
    21:00 +8°C° 2.2 mm 4 m/s 730 mmHg 92%
    22:00 +8°C° 2.2 mm 4 m/s 731 mmHg 93%
    23:00 +8°C° 3.1 mm 3 m/s 731 mmHg 94%

    29 Janvier, Mardi

    Heure Température Précipitation Vent Pression Humidité
    00:00 +8°C° 3.1 mm 3 m/s 731 mmHg 95%
    01:00 +8°C° 3.1 mm 2 m/s 731 mmHg 96%
    02:00 +7°C° 2.3 mm 2 m/s 731 mmHg 96%
    03:00 +8°C° 2.3 mm 1 m/s 730 mmHg 95%
    04:00 +8°C° 2.3 mm 1 m/s 730 mmHg 95%
    05:00 +8°C° 0.5 mm 1 m/s 731 mmHg 93%
    06:00 +8°C° 0.5 mm 1 m/s 731 mmHg 91%
    07:00 +7°C° 0.5 mm 1 m/s 731 mmHg 89%
    08:00 +8°C° 0.1 mm 1 m/s 732 mmHg 85%
    09:00 +9°C° 0.1 mm 1 m/s 732 mmHg 81%
    10:00 +10°C° 0.1 mm 1 m/s 732 mmHg 77%
    11:00 +10°C° 0.1 mm 1 m/s 732 mmHg 76%
    12:00 +10°C° 0.1 mm 1 m/s 732 mmHg 75%
    13:00 +9°C° 0.1 mm 0 m/s 732 mmHg 74%
    14:00 +9°C° 0.4 mm 0 m/s 732 mmHg 77%
    15:00 +9°C° 0.4 mm 0 m/s 732 mmHg 81%
    16:00 +8°C° 0.4 mm 0 m/s 732 mmHg 85%
    17:00 +9°C° 1.3 mm 1 m/s 732 mmHg 87%
    18:00 +8°C° 1.3 mm 1 m/s 733 mmHg 88%
    19:00 +7°C° 1.3 mm 2 m/s 733 mmHg 90%
    20:00 +7°C° 1.1 mm 2 m/s 733 mmHg 89%
    21:00 +7°C° 1.1 mm 2 m/s 733 mmHg 87%
    22:00 +7°C° 1.1 mm 2 m/s 733 mmHg 86%
    23:00 +6°C° 1.1 mm 2 m/s 733 mmHg 86%
    Voir plus